Wind_Speed
24 24 24 23 23 23 23 22 21 20 19 17 16 15 14 14 14 15 15 15 15 15 16 15 15 15 16 17 18 17 15 13 12 10 8 6 5 3 2 2 3 3
26 25 25 25 25 24 24 23 22 21 20 18 16 15 15 15 15 15 16 16 16 16 16 17 16 16 16 17 18 18 17 15 14 12 10 9 7 6 4 3 1 0
27 27 27 26 25 24 23 23 23 22 20 19 17 16 17 17 16 16 16 17 17 17 17 17 17 17 17 17 17 18 19 18 16 14 13 12 10 9 7 6 4 3
29 28 27 26 25 24 24 24 23 23 21 20 19 17 18 18 18 17 17 17 18 18 18 18 17 17 17 17 17 18 19 19 19 17 16 14 13 11 10 9 7 6
29 28 27 26 26 25 25 25 24 23 22 20 19 18 18 19 19 18 18 18 18 18 18 18 18 17 17 17 17 18 19 20 20 20 18 17 15 14 13 12 10 9
29 29 28 27 27 27 27 26 24 24 23 21 20 20 19 19 19 19 18 18 17 17 17 17 17 17 17 17 17 17 18 19 20 21 21 20 19 18 16 15 13 12
30 29 29 28 28 28 27 26 25 25 24 22 21 21 20 20 20 19 18 17 17 16 17 16 16 16 16 17 17 16 17 18 20 21 22 22 22 21 20 18 17 15
29 29 29 29 29 28 28 27 26 25 24 23 23 21 21 21 20 19 19 18 17 16 16 16 16 15 16 16 16 16 16 17 18 19 20 21 23 23 22 21 20 19
28 29 29 29 29 29 28 27 26 25 24 24 23 22 22 21 20 19 19 18 17 17 17 17 17 17 17 16 15 15 15 16 17 18 19 20 21 22 22 23 22 21
28 29 29 30 30 29 28 27 26 25 25 24 23 23 23 22 20 20 19 19 19 17 17 16 16 17 17 17 15 14 14 14 15 16 17 18 19 21 22 23 23 22
28 30 30 30 30 30 29 28 27 26 26 25 24 24 23 22 21 20 20 20 19 18 17 16 15 15 16 15 14 14 14 14 14 15 16 17 18 19 21 22 22 22
28 29 30 30 29 29 29 28 27 27 26 25 24 23 23 23 22 21 20 20 18 17 16 16 15 15 15 14 13 13 14 14 15 15 15 16 17 18 19 20 20 20
27 27 28 28 28 28 28 27 27 27 26 25 24 23 23 23 22 21 20 19 17 17 16 16 16 16 15 15 14 14 13 14 15 14 14 14 15 15 17 18 18 18
26 26 27 27 27 27 27 27 27 26 26 24 23 23 23 22 21 20 19 18 18 17 16 16 16 16 16 15 14 14 13 13 13 14 14 13 13 14 15 16 17 17
26 27 28 27 27 27 27 27 26 26 25 24 24 24 22 22 21 20 20 19 18 18 17 17 17 16 15 14 13 13 12 11 11 12 13 13 13 13 14 15 15 16
24 27 28 28 28 28 27 27 26 26 26 25 25 24 23 22 22 21 21 21 20 19 18 18 18 16 14 12 12 11 11 11 11 11 12 13 13 13 14 14 14 15
22 24 26 27 27 27 27 27 26 26 26 26 25 25 24 23 23 23 22 21 20 20 19 19 18 16 14 13 13 12 12 12 12 12 12 13 13 14 14 14 15 16
22 22 23 24 25 25 25 25 26 26 26 25 25 25 24 24 23 23 22 22 21 20 19 19 18 16 15 15 14 14 14 14 14 13 14 14 14 14 14 15 16 17
26 25 24 23 23 23 23 24 25 25 24 24 24 24 24 23 23 22 22 21 21 20 19 18 16 15 15 15 15 15 15 16 15 14 14 14 14 14 14 14 15 16
30 28 27 25 23 23 23 24 25 24 24 24 23 23 23 22 21 21 21 21 20 18 16 15 13 12 13 13 13 13 13 14 14 13 13 13 13 13 13 14 14 15
34 32 30 28 25 24 24 24 24 24 24 23 23 22 21 19 19 19 19 18 17 14 13 12 11 10 10 10 10 9 10 11 13 13 14 14 13 14 14 15 15 16
34 35 34 32 29 27 25 24 23 23 22 23 22 21 20 19 19 18 18 16 15 13 13 12 10 9 9 9 9 9 11 13 15 16 17 17 17 17 18 18 18 19
32 35 36 35 33 31 28 26 24 22 22 22 22 21 20 19 18 17 16 15 15 14 14 13 11 11 12 12 12 14 16 17 19 19 20 21 21 21 21 22 22 22
29 32 35 36 36 35 32 29 26 24 23 23 23 22 21 19 18 18 17 17 17 16 16 16 14 15 16 16 17 18 20 21 22 23 24 24 24 24 24 24 24 25
24 27 31 34 36 37 35 33 30 28 26 25 24 23 22 21 21 21 20 19 19 19 19 19 19 18 19 19 20 21 22 23 24 25 26 26 25 25 25 25 26 27
20 22 25 29 32 35 36 36 34 32 30 28 27 26 25 24 24 24 23 23 22 22 22 22 22 22 22 22 22 23 24 25 26 27 27 27 27 27 27 28 28 29
Wind_Direction
204 206 208 211 212 213 217 220 219 218 220 220 217 222 229 229 226 224 222 219 217 214 211 210 208 204 201 200 197 197 198 197 196 194 191 185 174 165 148 119 96 82
205 206 208 210 211 212 214 218 221 220 219 220 217 216 223 228 225 220 219 219 218 216 215 213 213 211 207 205 202 200 202 204 204 202 201 202 200 200 206 206 211 220
207 207 208 209 210 211 212 215 220 221 219 219 217 214 219 226 227 223 219 220 219 216 217 216 216 216 213 210 207 205 206 208 210 210 209 211 211 211 217 224 234 245
209 208 209 209 211 213 214 215 218 221 221 219 218 216 218 224 228 227 223 222 222 219 217 218 218 219 218 215 212 209 209 211 213 215 215 217 218 219 224 227 234 243
210 210 210 210 211 213 215 216 216 220 222 220 220 220 220 223 226 229 228 225 226 225 223 222 222 223 223 220 216 212 211 213 215 218 219 221 225 228 232 234 235 242
210 211 211 210 211 213 215 216 216 219 221 221 222 222 222 224 226 229 231 229 229 230 230 228 226 227 228 227 223 216 213 214 217 219 221 223 226 230 235 238 240 242
210 211 211 211 211 213 215 216 217 219 221 223 224 223 223 225 227 229 232 232 231 231 232 234 232 229 229 230 229 224 218 217 218 220 220 222 226 229 232 237 242 245
210 211 212 212 212 214 215 217 218 219 221 225 227 226 225 224 225 228 231 233 232 231 231 234 235 235 233 232 230 228 225 223 222 222 221 222 225 228 231 235 240 244
210 211 212 212 213 215 216 217 219 219 221 224 227 229 230 228 226 227 230 233 233 232 231 232 234 237 240 240 236 233 229 227 226 225 223 223 224 226 229 232 235 239
210 211 212 213 213 215 216 217 219 220 222 223 225 228 231 231 230 229 230 232 233 233 233 233 234 235 239 244 245 244 239 233 230 228 226 225 225 226 229 231 233 235
211 213 214 214 214 215 216 217 219 221 222 223 223 225 229 231 232 232 232 232 233 235 237 238 240 240 241 243 245 248 248 243 237 232 229 227 226 227 229 231 232 233
212 214 216 217 216 216 216 217 219 221 222 224 223 225 227 230 232 234 235 235 235 235 236 237 239 243 245 246 244 244 244 245 243 237 232 229 228 229 231 233 233 232
213 216 218 218 218 217 217 217 219 221 223 225 225 225 227 229 232 234 236 237 236 235 236 236 236 238 241 244 245 244 242 242 244 244 240 234 231 231 234 236 237 236
214 217 219 220 219 218 217 218 220 222 223 225 226 227 228 229 231 234 237 238 237 236 236 235 236 236 236 239 242 245 247 245 244 246 247 244 238 234 234 236 238 239
213 216 219 220 221 220 219 219 220 222 224 225 227 230 230 230 232 233 235 236 236 237 237 237 239 239 239 240 242 245 249 247 245 245 245 246 245 241 240 239 240 242
211 216 218 220 221 222 221 222 222 223 225 226 229 232 233 233 233 233 235 236 236 236 238 239 242 243 243 245 245 247 249 246 242 241 242 244 245 247 249 250 250 250
212 215 218 220 222 222 223 224 224 226 227 229 230 232 233 234 236 236 237 237 237 238 239 242 244 245 245 247 249 250 251 249 244 241 242 242 243 245 248 251 254 254
213 215 218 221 222 222 223 223 225 227 228 230 231 232 234 235 236 239 240 240 240 240 240 243 245 246 245 246 248 249 251 253 250 246 244 244 245 248 249 251 253 254
214 215 217 218 220 221 222 222 223 227 229 231 232 233 234 234 235 239 241 241 241 240 242 243 244 244 243 242 241 242 245 249 250 249 247 246 248 251 251 252 253 255
216 216 217 217 217 218 220 221 223 226 228 231 232 232 233 233 233 235 237 239 239 237 236 236 230 225 226 226 226 228 234 241 248 251 251 249 249 251 254 256 260 264
218 218 218 218 218 218 219 221 222 224 227 229 231 232 232 230 228 227 227 229 231 227 221 219 212 205 208 212 214 219 230 242 250 255 257 258 257 260 263 266 270 272
219 219 219 219 219 219 220 220 221 223 226 228 230 229 225 221 218 216 215 217 222 225 224 221 216 217 222 224 227 235 243 250 254 259 262 264 265 268 271 274 276 276
217 219 220 220 220 220 221 220 221 222 223 225 227 225 221 218 216 215 216 220 227 234 238 236 232 236 242 243 243 246 249 252 256 259 262 263 265 268 271 273 275 277
214 216 219 220 221 222 222 221 222 222 222 224 226 226 225 224 224 224 226 230 235 241 247 249 248 248 250 249 248 249 251 253 256 258 259 261 263 266 269 271 273 275
211 212 216 219 221 222 222 222 222 222 223 224 226 228 229 229 231 233 234 237 241 245 250 254 255 255 254 253 253 253 254 255 257 256 255 258 261 263 264 266 268 271
212 207 210 216 220 223 224 224 223 223 224 226 228 229 231 233 236 239 240 241 244 248 251 254 257 258 258 258 258 258 259 259 259 258 258 261 265 266 267 269 271 275
Height
3192 3194 3197 3199 3202 3204 3206 3207 3209 3211 3212 3214 3215 3217 3218 3219 3220 3220 3221 3222 3224 3225 3226 3227 3229 3230 3231 3232 3233 3234 3234 3235 3236 3237 3237 3238 3238 3239 3239 3239 3240 3240
3190 3192 3194 3196 3199 3201 3203 3205 3207 3209 3211 3212 3214 3215 3216 3217 3218 3219 3220 3221 3222 3223 3225 3226 3227 3228 3229 3231 3232 3233 3233 3234 3235 3236 3236 3237 3237 3238 3239 3239 3240 3240
3188 3190 3192 3194 3197 3199 3201 3204 3205 3207 3209 3211 3212 3214 3215 3215 3216 3217 3218 3219 3220 3221 3223 3224 3225 3227 3228 3229 3230 3231 3232 3233 3234 3234 3235 3236 3236 3237 3238 3238 3239 3239
3186 3188 3190 3193 3195 3197 3199 3201 3203 3205 3207 3209 3211 3212 3213 3214 3214 3215 3216 3217 3219 3220 3221 3222 3223 3225 3226 3227 3228 3230 3231 3231 3232 3233 3234 3234 3235 3236 3237 3237 3238 3238
3184 3186 3189 3191 3193 3195 3197 3198 3201 3203 3205 3207 3209 3210 3211 3212 3213 3214 3215 3216 3217 3218 3219 3220 3222 3223 3224 3225 3227 3228 3229 3230 3231 3231 3232 3233 3234 3234 3235 3236 3236 3237
3182 3184 3186 3188 3191 3192 3194 3196 3199 3201 3202 3205 3206 3208 3209 3210 3211 3212 3213 3214 3216 3216 3217 3219 3220 3221 3222 3223 3224 3226 3227 3228 3229 3230 3231 3232 3232 3233 3233 3234 3235 3236
3180 3182 3184 3186 3188 3190 3192 3194 3196 3198 3200 3202 3204 3205 3207 3208 3210 3211 3212 3213 3214 3215 3216 3217 3218 3219 3220 3221 3222 3223 3225 3226 3227 3228 3229 3230 3230 3231 3232 3232 3233 3234
3178 3180 3182 3184 3186 3187 3189 3192 3194 3196 3198 3200 3201 3203 3205 3206 3208 3209 3210 3211 3212 3213 3214 3215 3216 3217 3218 3219 3220 3221 3222 3223 3224 3225 3226 3227 3228 3229 3230 3230 3231 3232
3176 3178 3180 3181 3183 3185 3187 3189 3192 3194 3196 3197 3199 3201 3202 3204 3206 3207 3208 3209 3210 3211 3212 3213 3214 3215 3215 3216 3218 3219 3220 3221 3222 3223 3224 3225 3226 3227 3228 3228 3229 3229
3173 3175 3177 3179 3181 3183 3185 3187 3189 3192 3193 3195 3197 3199 3200 3201 3203 3204 3205 3206 3208 3209 3210 3211 3212 3213 3214 3214 3215 3216 3217 3218 3219 3220 3221 3222 3223 3224 3225 3225 3226 3227
3171 3173 3175 3176 3178 3180 3182 3185 3187 3189 3191 3193 3195 3196 3198 3199 3200 3202 3203 3204 3205 3207 3208 3209 3210 3211 3212 3213 3214 3214 3215 3216 3217 3218 3219 3220 3221 3222 3222 3223 3224 3225
3169 3171 3173 3175 3177 3178 3180 3182 3184 3186 3188 3190 3192 3194 3196 3197 3198 3199 3200 3202 3204 3205 3206 3207 3209 3209 3210 3211 3212 3212 3213 3213 3214 3215 3216 3217 3218 3219 3220 3221 3221 3222
3167 3169 3171 3173 3175 3177 3179 3180 3182 3184 3186 3188 3190 3192 3193 3194 3196 3197 3199 3200 3202 3203 3204 3206 3207 3207 3208 3209 3210 3210 3211 3211 3212 3213 3214 3215 3216 3217 3217 3218 3219 3220
3166 3168 3170 3172 3174 3175 3177 3178 3180 3182 3183 3185 3187 3189 3190 3192 3194 3195 3197 3198 3200 3201 3202 3203 3204 3205 3206 3207 3208 3208 3209 3209 3210 3211 3211 3212 3213 3214 3215 3215 3216 3217
3164 3166 3168 3170 3172 3173 3174 3176 3178 3179 3181 3183 3185 3186 3188 3190 3191 3193 3194 3196 3197 3198 3200 3200 3201 3202 3203 3205 3205 3206 3207 3208 3208 3209 3209 3210 3211 3212 3212 3213 3214 3214
3162 3164 3166 3168 3169 3171 3172 3174 3175 3177 3179 3181 3182 3184 3186 3187 3189 3190 3192 3193 3194 3196 3197 3198 3198 3200 3201 3202 3203 3204 3205 3206 3206 3207 3207 3208 3208 3209 3210 3210 3211 3211
3160 3162 3164 3165 3167 3169 3170 3172 3174 3175 3176 3178 3180 3182 3183 3185 3186 3187 3189 3191 3192 3193 3194 3195 3196 3198 3199 3200 3201 3202 3203 3203 3204 3205 3205 3205 3206 3206 3207 3208 3208 3208
3159 3160 3162 3163 3165 3167 3168 3170 3171 3173 3174 3176 3177 3179 3181 3183 3184 3185 3186 3188 3190 3191 3192 3193 3194 3196 3197 3198 3199 3200 3200 3201 3202 3203 3203 3203 3204 3204 3205 3205 3205 3206
3156 3158 3159 3161 3163 3164 3166 3167 3169 3170 3171 3173 3175 3177 3179 3180 3181 3183 3184 3185 3187 3188 3189 3191 3192 3193 3195 3196 3197 3198 3198 3199 3199 3200 3200 3201 3201 3202 3202 3202 3203 3203
3153 3155 3157 3159 3160 3162 3163 3164 3166 3167 3169 3171 3172 3174 3176 3177 3179 3180 3181 3183 3184 3186 3187 3188 3190 3191 3192 3193 3195 3196 3196 3197 3197 3197 3197 3198 3199 3199 3200 3200 3200 3200
3150 3152 3154 3156 3158 3159 3160 3162 3163 3165 3167 3168 3170 3171 3173 3175 3177 3178 3179 3181 3182 3184 3185 3186 3188 3189 3191 3192 3193 3194 3195 3195 3195 3194 3195 3195 3196 3197 3197 3197 3198 3198
3147 3149 3151 3153 3155 3157 3158 3159 3161 3163 3165 3166 3168 3169 3171 3173 3174 3176 3177 3178 3180 3181 3183 3184 3186 3188 3189 3190 3192 3193 3193 3193 3192 3193 3193 3193 3193 3194 3194 3194 3195 3195
3144 3146 3148 3150 3152 3153 3155 3157 3159 3161 3163 3164 3166 3167 3169 3170 3172 3174 3175 3177 3178 3179 3180 3182 3185 3186 3188 3189 3190 3191 3191 3190 3190 3190 3190 3190 3190 3191 3191 3191 3192 3192
3141 3143 3145 3147 3148 3150 3152 3155 3157 3159 3160 3162 3163 3165 3167 3169 3170 3172 3173 3174 3175 3177 3178 3179 3181 3184 3185 3186 3187 3188 3188 3188 3188 3188 3187 3187 3188 3188 3189 3189 3188 3189
3138 3140 3142 3143 3145 3147 3150 3152 3154 3156 3158 3159 3161 3163 3165 3166 3168 3169 3170 3171 3173 3174 3175 3176 3178 3179 3181 3182 3183 3184 3184 3185 3185 3184 3184 3185 3185 3186 3186 3186 3186 3185
3135 3137 3139 3141 3142 3145 3147 3149 3151 3153 3155 3156 3158 3160 3162 3163 3164 3165 3167 3169 3170 3171 3172 3173 3174 3175 3176 3177 3178 3179 3179 3180 3180 3180 3180 3181 3182 3182 3182 3182 3182 3182